Погода в Корабии

Румыния     43°46′51″N   24°30′02″E
темп.,
°C
ветер,
м/с
пор.,
м/с
влажн.,
%
обл.,
%
осадки,
мм/ч
давл.,
гПа
погр.,
м
23 апреля, пт
пт2300:00+14вюв1155100 0.0 101810
03:00+13з2358100 0.0 101848
06:00+11юз2281100 0.4 101844
09:00+12ююз3584100 0.6 1019139
12:00+16зюз576572 0.6 10201303
15:00+18з91049100 1.0 10191550
18:00+16зсз81147100 0.0 10191357
21:00+12зсз61349100 0.0 1021450
24 апреля, сб
сб2400:00+10з51255100 0.0 1022388
03:00+7з36685 0.0 1022139
06:00+5з238483 0.0 102245
09:00+9з227797 0.0 1024374
12:00+14св1156100 0.0 10231037
15:00+16св2249100 0.0 10211582
18:00+16всв2149100 0.0 10201571
21:00+11в1169100 0.0 102111
25 апреля, вс
вс2500:00+9вюв117848 0.0 102110
03:00+8ююв008499 0.0 102110
06:00+7зюз11885 0.0 102010
09:00+11ююв00753 0.0 1021298
12:00+16вюв12567 0.1 10201295
15:00+17св2145100 0.2 10181840
18:00+16ссв1258100 0.0 1018485
21:00+12юз11651 0.0 101810
26 апреля, пн
пн2600:00+10ююз227298 0.0 101811
03:00+11юз37697 0.0 1018163
06:00+7зюз34800 0.0 101873
09:00+11зсз35725 0.0 1019363
12:00+16зсз335017 0.0 10191172
15:00+19зсз233898 0.0 10171626
18:00+19всв1139100 0.0 10151367
21:00+14вюв225149 0.0 101510
27 апреля, вт
вт2700:00+11вюв226739 0.0 101424
03:00+10в1270100 0.0 101412
06:00+10вюв1170100 0.0 101215
09:00+13в2265100 0.0 1012219
12:00+18в335674 0.0 1012719
15:00+21в4550100 0.0 10091283
18:00+19в1161100 0.0 100831
21:00+15всв227637 0.0 100748